Location: Cleveland
(41.4990°N, 81.6960°W)
Time: 10:15:49
(UTC-04:00)

Tiangong - Visible Passes

Search period start: 01 October 2022 00:00
Search period end: 11 October 2022 00:00
Orbit: 381 x 385 km, 41.5° (Epoch: 01 October)

Date Brightness Start Highest point End Pass type
(mag) Time Alt. Az. Time Alt. Az. Time Alt. Az.
07 Oct -0.6 20:20:05 10° SSW 20:22:18 22° SSE 20:22:18 22° SSE visible
08 Oct 0.0 19:20:54 10° S 19:22:39 14° SSE 19:24:24 10° ESE visible
08 Oct -0.1 20:55:56 10° WSW 20:57:24 24° SW 20:57:24 24° SW visible
09 Oct -1.3 19:55:59 10° SW 19:58:54 35° SSE 20:00:11 24° ESE visible
10 Oct -2.0 20:32:12 10° WSW 20:35:04 66° SW 20:35:04 66° SW visible
